Flag for Canada Weather past 2 weeks in Calgary, Alberta, Canada

Now
43 °F

Passing clouds.


Feels Like: 39 °F
Forecast: 28 / 56 °F
Wind: 6 mph from Southwest

Location: Calgary International

Current Time: Apr 19, 2015 at 10:35:57 AM

Latest Report: Apr 19, 2015 at 10:00 AM


Visibility: 40 mi

Pressure: 30.35 "Hg

Humidity: 39%

Dew point: 19 °F

Location of CalgaryLocation

Historic Weather in Calgary — Graph

°F

Calgary temperature yesterday

Maximum temperature yesterday: 54 °F (at 6:00 PM)
Minimum temperature yesterday: 34 °F (at 10:00 PM)
Average temperature yesterday: 42 °F

Past Weeks' High & Low Weather Summary

 TemperatureHumidityPressure
High70 °F (Apr 17, 3:00 PM)93% (Apr 5, 2:00 AM)30.40 "Hg (Apr 5, 2:00 AM)
Low18 °F (Apr 7, 5:00 AM)10% (Apr 8, 4:00 PM)29.33 "Hg (Apr 11, 12:00 PM)
Average40 °F50%30.00 "Hg
* Reported Apr 4 9:00 AM — Apr 19 9:00 AM, Calgary, Weather by CustomWeather, © 2015

Note: Actual official high and low records may vary slightly from our data, if they occured in-between our weather recording intervals... More about our weather records

Advertising

Calgary weather history for previous 24 hours

 ConditionsComfort  
Time TempWeatherWind HumidityBarometerVisibility
9:00 AM
Sun, Apr 19
34 °FPartly sunny.No wind60%30.38 "Hg40 mi
8:00 AM28 °FPassing clouds.2 mph64%30.39 "Hg40 mi
7:00 AM23 °FPassing clouds.2 mph68%30.38 "Hg40 mi
6:00 AM21 °FPassing clouds.No wind74%30.38 "Hg40 mi
5:00 AM25 °FPassing clouds.5 mph69%30.37 "Hg15 mi
4:00 AM25 °FPassing clouds.2 mph69%30.38 "Hg15 mi
3:00 AM28 °FPassing clouds.5 mph64%30.39 "Hg15 mi
2:00 AM32 °FPassing clouds.No wind60%30.39 "Hg15 mi
1:00 AM30 °FPassing clouds.2 mph59%30.40 "Hg15 mi
12:00 AM36 °FPassing clouds.3 mph48%30.40 "Hg15 mi
11:00 PM
Sat, Apr 18
34 °FPassing clouds.3 mph51%30.40 "Hg15 mi
10:00 PM34 °FPassing clouds.7 mph48%30.40 "Hg15 mi
9:00 PM39 °FPassing clouds.7 mph39%30.38 "Hg40 mi
8:00 PM45 °FPassing clouds.10 mph29%30.34 "Hg40 mi
7:00 PM50 °FPassing clouds.13 mph20%30.34 "Hg40 mi
6:00 PM54 °FPassing clouds.20 mph18%30.34 "Hg40 mi
5:00 PM52 °FPassing clouds.20 mph19%30.34 "Hg40 mi
4:00 PM52 °FScattered clouds.12 mph19%30.35 "Hg40 mi
3:00 PM52 °FScattered clouds.18 mph20%30.34 "Hg30 mi
2:00 PM50 °FScattered clouds.22 mph24%30.34 "Hg40 mi
1:00 PM48 °FScattered clouds.17 mph29%30.34 "Hg40 mi
12:00 PM45 °FPartly sunny.18 mph37%30.37 "Hg30 mi
11:00 AM43 °FPartly sunny.18 mph42%30.37 "Hg30 mi
10:00 AM39 °FPartly sunny.16 mph52%30.35 "Hg20 mi
Weather by CustomWeather, © 2015

See weather overviewHow to use our weather pages